�������l�o���
Date,Time,MP-1(��Sv/h),MP-2(��Sv/h),MP-3(��Sv/h),MP-4(��Sv/h),MP-5(��Sv/h),MP-6(��Sv/h),MP-7(��Sv/h),MP-8(��Sv/h),����,����(m/s),���J
2019/09/19,00:00,0.733,1.031,0.710,1.267,0.927,0.420,0.729,0.688,�k��,4.0,��
2019/09/19,00:10,0.731,1.029,0.710,1.267,0.928,0.420,0.730,0.690,�k��,3.2,��
2019/09/19,00:20,0.732,1.030,0.712,1.266,0.927,0.419,0.730,0.690,�k��,3.1,��
2019/09/19,00:30,0.732,1.031,0.709,1.268,0.925,0.420,0.730,0.689,�k��,3.0,��
2019/09/19,00:40,0.734,1.032,0.711,1.266,0.929,0.419,0.729,0.689,�k��,4.1,��
2019/09/19,00:50,0.732,1.026,0.711,1.269,0.926,0.420,0.731,0.688,�k��,3.3,��
2019/09/19,01:00,0.733,1.032,0.712,1.268,0.925,0.420,0.730,0.689,�k��,4.5,��
2019/09/19,01:10,0.731,1.029,0.712,1.266,0.926,0.419,0.730,0.689,�k��,6.0,��
2019/09/19,01:20,0.731,1.031,0.710,1.267,0.925,0.418,0.730,0.689,�k��,6.7,��
2019/09/19,01:30,0.731,1.029,0.711,1.269,0.928,0.420,0.730,0.690,�k��,5.1,��
2019/09/19,01:40,0.731,1.029,0.713,1.270,0.927,0.421,0.730,0.691,�k��,4.3,��
2019/09/19,01:50,0.732,1.032,0.712,1.271,0.927,0.420,0.729,0.690,�k��,4.3,��
2019/09/19,02:00,0.731,1.030,0.710,1.271,0.927,0.420,0.730,0.690,�k��,4.9,��
2019/09/19,02:10,0.731,1.031,0.712,1.270,0.928,0.419,0.731,0.690,���k��,4.6,��
2019/09/19,02:20,0.731,1.027,0.711,1.269,0.927,0.419,0.730,0.690,���k��,5.5,��
2019/09/19,02:30,0.731,1.032,0.712,1.272,0.927,0.419,0.729,0.691,�k��,5.5,��
2019/09/19,02:40,0.732,1.029,0.713,1.270,0.927,0.418,0.729,0.690,�k��,4.8,��
2019/09/19,02:50,0.731,1.031,0.711,1.271,0.927,0.419,0.729,0.690,�k�k��,4.9,��
2019/09/19,03:00,0.732,1.031,0.712,1.270,0.927,0.420,0.729,0.689,�k�k��,5.2,��
2019/09/19,03:10,0.733,1.029,0.711,1.273,0.928,0.420,0.730,0.691,�k�k��,5.9,��
2019/09/19,03:20,0.732,1.029,0.710,1.270,0.927,0.419,0.730,0.690,�k�k��,5.5,��
2019/09/19,03:30,0.733,1.030,0.713,1.274,0.926,0.419,0.731,0.691,�k�k��,4.7,��
2019/09/19,03:40,0.732,1.029,0.711,1.271,0.926,0.420,0.730,0.690,�k,2.8,��
2019/09/19,03:50,0.731,1.030,0.712,1.274,0.925,0.420,0.730,0.691,�k�k��,3.7,��
2019/09/19,04:00,0.732,1.032,0.711,1.273,0.926,0.420,0.730,0.690,�k�k��,4.5,��
2019/09/19,04:10,0.732,1.032,0.712,1.271,0.925,0.419,0.732,0.691,�k�k��,4.9,��
2019/09/19,04:20,0.731,1.033,0.711,1.271,0.926,0.420,0.730,0.690,�k�k��,5.2,��
2019/09/19,04:30,0.733,1.032,0.713,1.273,0.927,0.419,0.728,0.690,�k,4.4,��
2019/09/19,04:40,0.732,1.034,0.713,1.271,0.928,0.418,0.729,0.692,�k�k��,5.3,��
2019/09/19,04:50,0.731,1.032,0.713,1.273,0.928,0.419,0.731,0.691,�k�k��,5.0,��
2019/09/19,05:00,0.731,1.032,0.710,1.271,0.926,0.420,0.728,0.692,�k�k��,6.0,��
2019/09/19,05:10,0.731,1.033,0.712,1.270,0.928,0.418,0.728,0.687,�k�k��,4.6,��
2019/09/19,05:20,0.732,1.030,0.712,1.272,0.926,0.419,0.730,0.690,�k�k��,5.9,��
2019/09/19,05:30,0.728,1.031,0.711,1.269,0.928,0.420,0.729,0.690,�k�k��,5.8,��
2019/09/19,05:40,0.731,1.031,0.713,1.271,0.927,0.418,0.729,0.691,�k�k��,5.9,��
2019/09/19,05:50,0.731,1.032,0.712,1.272,0.926,0.419,0.731,0.691,�k�k��,5.3,��
2019/09/19,06:00,0.731,1.032,0.711,1.272,0.927,0.419,0.731,0.692,�k�k��,5.9,��
2019/09/19,06:10,0.733,1.030,0.711,1.272,0.927,0.420,0.730,0.690,�k�k��,4.7,��
2019/09/19,06:20,0.732,1.031,0.711,1.272,0.927,0.418,0.731,0.691,�k�k��,5.1,��
2019/09/19,06:30,0.731,1.030,0.709,1.268,0.927,0.418,0.730,0.690,�k�k��,5.1,��
2019/09/19,06:40,0.732,1.030,0.711,1.271,0.927,0.417,0.728,0.690,�k�k��,5.9,��
2019/09/19,06:50,0.733,1.032,0.711,1.271,0.927,0.419,0.731,0.689,�k�k��,5.2,��
2019/09/19,07:00,0.730,1.030,0.711,1.272,0.927,0.419,0.731,0.691,�k�k��,4.6,��
2019/09/19,07:10,0.732,1.030,0.712,1.272,0.928,0.418,0.732,0.691,�k�k��,5.0,��
2019/09/19,07:20,0.732,1.033,0.713,1.273,0.928,0.417,0.731,0.690,�k�k��,4.9,��
2019/09/19,07:30,0.732,1.032,0.712,1.272,0.928,0.418,0.730,0.691,�k�k��,3.7,��
2019/09/19,07:40,0.734,1.031,0.712,1.272,0.928,0.417,0.728,0.690,�k,3.5,��
2019/09/19,07:50,0.733,1.034,0.711,1.274,0.928,0.419,0.730,0.691,�k�k��,1.7,��
2019/09/19,08:00,0.734,1.030,0.712,1.273,0.927,0.418,0.731,0.692,�k�k��,3.0,��
2019/09/19,08:10,0.734,1.032,0.712,1.275,0.929,0.417,0.730,0.690,�k�k��,2.9,��
2019/09/19,08:20,0.732,1.032,0.712,1.271,0.930,0.418,0.730,0.693,�k�k��,6.2,��
2019/09/19,08:30,0.732,1.029,0.710,1.274,0.928,0.416,0.730,0.691,�k�k��,7.4,��
2019/09/19,08:40,0.732,1.027,0.710,1.275,0.929,0.418,0.730,0.691,�k�k��,5.3,��
2019/09/19,08:50,0.733,1.029,0.707,1.276,0.926,0.418,0.730,0.688,�k�k��,4.7,��
2019/09/19,09:00,0.733,1.029,0.711,1.273,0.930,0.417,0.731,0.689,�k�k��,4.7,��
2019/09/19,09:10,0.733,1.030,0.712,1.274,0.925,0.418,0.731,0.689,�k�k��,5.5,��
2019/09/19,09:20,0.734,1.025,0.711,1.274,0.924,0.415,0.729,0.689,�k,4.3,��
2019/09/19,09:30,0.734,1.029,0.713,1.277,0.930,0.418,0.731,0.689,�k��,6.6,��
2019/09/19,09:40,0.733,1.027,0.710,1.276,0.927,0.416,0.730,0.690,�k��,5.4,��
2019/09/19,09:50,0.733,1.028,0.714,1.275,0.912,0.417,0.731,0.690,�k��,6.0,��
2019/09/19,10:00,0.734,1.029,0.713,1.272,0.917,0.417,0.730,0.689,�k��,6.1,��
2019/09/19,10:10,0.736,1.028,0.712,1.278,0.929,0.417,0.731,0.689,�k�k��,4.3,��
2019/09/19,10:20,0.735,1.028,0.712,1.275,0.932,0.418,0.732,0.691,�k�k��,5.2,��
2019/09/19,10:30,0.736,1.032,0.714,1.277,0.930,0.416,0.731,0.689,�k�k��,3.6,��
2019/09/19,10:40,0.736,1.029,0.713,1.275,0.933,0.417,0.730,0.689,�k�k��,2.6,��
2019/09/19,10:50,0.737,1.035,0.714,1.277,0.933,0.417,0.732,0.690,�k�k��,2.8,��
2019/09/19,11:00,0.735,1.034,0.712,1.277,0.932,0.417,0.731,0.689,�k�k��,2.5,��
2019/09/19,11:10,0.736,1.036,0.711,1.279,0.935,0.417,0.733,0.689,�k��,2.8,��
2019/09/19,11:20,0.737,1.035,0.715,1.278,0.936,0.417,0.733,0.691,�k��,2.9,��
2019/09/19,11:30,0.738,1.036,0.714,1.277,0.935,0.418,0.731,0.690,�k,2.8,��
2019/09/19,11:40,0.737,1.037,0.717,1.278,0.935,0.417,0.732,0.690,�k��,4.2,��
2019/09/19,11:50,0.738,1.039,0.714,1.279,0.936,0.418,0.732,0.689,�k��,5.3,��
2019/09/19,12:00,0.737,1.043,0.716,1.279,0.938,0.418,0.732,0.689,���k��,5.3,��
2019/09/19,12:10,0.737,1.045,0.717,1.279,0.935,0.417,0.731,0.690,���k��,5.3,��
2019/09/19,12:20,0.737,1.042,0.717,1.281,0.936,0.418,0.733,0.690,���k��,4.3,��
2019/09/19,12:30,0.740,1.044,0.717,1.279,0.938,0.418,0.733,0.692,��,4.7,��
2019/09/19,12:40,0.740,1.045,0.716,1.279,0.938,0.418,0.732,0.692,���k��,4.6,��
2019/09/19,12:50,0.740,1.046,0.718,1.282,0.939,0.418,0.732,0.691,��,4.2,��
2019/09/19,13:00,0.738,1.047,0.715,1.281,0.939,0.418,0.732,0.690,��,4.0,��
2019/09/19,13:10,0.739,1.041,0.718,1.280,0.938,0.419,0.732,0.690,��,5.3,��
2019/09/19,13:20,0.739,1.041,0.720,1.278,0.938,0.419,0.730,0.692,��,3.8,��
2019/09/19,13:30,0.740,1.044,0.718,1.282,0.938,0.421,0.732,0.691,��,4.4,��
2019/09/19,13:40,0.740,1.041,0.714,1.281,0.940,0.421,0.732,0.691,���쓌,4.4,��
2019/09/19,13:50,0.739,1.042,0.717,1.281,0.940,0.419,0.732,0.692,��,4.7,��
2019/09/19,14:00,0.739,1.041,0.715,1.281,0.939,0.419,0.731,0.689,��,4.8,��
2019/09/19,14:10,0.738,1.039,0.716,1.283,0.942,0.420,0.733,0.691,���쓌,4.8,��
2019/09/19,14:20,0.739,1.042,0.717,1.280,0.940,0.420,0.734,0.692,���쓌,4.4,��
2019/09/19,14:30,0.739,1.040,0.716,1.281,0.938,0.420,0.731,0.691,���쓌,5.0,��
2019/09/19,14:40,0.740,1.042,0.718,1.282,0.938,0.418,0.733,0.691,���쓌,5.5,��
2019/09/19,14:50,0.738,1.042,0.715,1.281,0.942,0.417,0.733,0.691,���쓌,5.8,��
2019/09/19,15:00,0.738,1.044,0.717,1.283,0.940,0.419,0.734,0.691,���쓌,5.3,��
2019/09/19,15:10,0.738,1.041,0.717,1.283,0.940,0.420,0.733,0.692,�쓌,3.9,��
2019/09/19,15:20,0.738,1.045,0.716,1.284,0.939,0.419,0.733,0.690,��,3.2,��
2019/09/19,15:30,0.739,1.046,0.719,1.282,0.938,0.418,0.732,0.690,��,2.3,��
2019/09/19,15:40,0.740,1.046,0.718,1.281,0.941,0.419,0.732,0.692,��,3.1,��
2019/09/19,15:50,0.739,1.037,0.719,1.277,0.941,0.419,0.734,0.693,��,1.7,��
2019/09/19,16:00,0.740,1.050,0.720,1.280,0.940,0.418,0.734,0.690,��,1.9,��
2019/09/19,16:10,0.741,1.052,0.717,1.278,0.939,0.418,0.732,0.691,���쓌,1.2,��
2019/09/19,16:20,0.741,1.048,0.718,1.279,0.942,0.420,0.731,0.690,��,1.9,��
2019/09/19,16:30,0.740,1.049,0.717,1.281,0.938,0.422,0.732,0.691,�k,1.7,��
2019/09/19,16:40,0.740,1.052,0.719,1.281,0.937,0.421,0.732,0.689,�k,2.0,��
2019/09/19,16:50,0.739,1.049,0.719,1.281,0.938,0.422,0.733,0.690,�k�k��,2.5,��
2019/09/19,17:00,0.738,1.050,0.718,1.277,0.939,0.421,0.733,0.691,�k��,3.5,��
2019/09/19,17:10,0.740,1.051,0.717,1.280,0.938,0.423,0.732,0.694,���k��,3.2,��
2019/09/19,17:20,0.738,1.051,0.720,1.281,0.941,0.422,0.735,0.694,���k��,3.6,��
2019/09/19,17:30,0.740,1.051,0.720,1.284,0.940,0.423,0.732,0.694,���k��,2.9,��
2019/09/19,17:40,0.739,1.053,0.721,1.281,0.942,0.422,0.732,0.693,���k��,3.2,��
2019/09/19,17:50,0.738,1.050,0.720,1.284,0.944,0.422,0.733,0.693,��,2.3,��
2019/09/19,18:00,0.741,1.054,0.722,1.287,0.942,0.421,0.735,0.693,���쓌,1.7,��
2019/09/19,18:10,0.741,1.052,0.720,1.282,0.944,0.422,0.735,0.694,���쐼,2.0,��
2019/09/19,18:20,0.740,1.052,0.722,1.283,0.943,0.421,0.736,0.694,���쐼,1.9,��
2019/09/19,18:30,0.740,1.051,0.721,1.283,0.942,0.421,0.733,0.694,�쐼,2.0,��
2019/09/19,18:40,0.741,1.052,0.720,1.286,0.944,0.421,0.734,0.694,�쐼,3.1,��
2019/09/19,18:50,0.741,1.053,0.720,1.283,0.943,0.422,0.734,0.692,�쐼,2.6,��
2019/09/19,19:00,0.740,1.053,0.718,1.286,0.946,0.422,0.733,0.695,�쐼,2.3,��
2019/09/19,19:10,0.739,1.049,0.723,1.284,0.944,0.422,0.734,0.695,��,1.7,��
2019/09/19,19:20,0.740,1.051,0.721,1.284,0.941,0.422,0.732,0.693,�k��,2.3,��
2019/09/19,19:30,0.740,1.052,0.718,1.285,0.941,0.422,0.732,0.692,�k��,2.3,��
2019/09/19,19:40,0.740,1.048,0.719,1.284,0.943,0.421,0.734,0.693,�k��,3.3,��
2019/09/19,19:50,0.738,1.050,0.721,1.285,0.942,0.421,0.734,0.694,�k��,3.6,��
2019/09/19,20:00,0.742,1.050,0.721,1.284,0.942,0.421,0.734,0.691,�k��,4.9,��
2019/09/19,20:10,0.740,1.051,0.722,1.284,0.943,0.421,0.734,0.692,�k��,5.2,��
2019/09/19,20:20,0.739,1.049,0.723,1.286,0.944,0.420,0.733,0.693,�k��,5.4,��
2019/09/19,20:30,0.741,1.052,0.720,1.286,0.943,0.421,0.730,0.693,�k��,5.9,��
2019/09/19,20:40,0.740,1.051,0.722,1.283,0.942,0.421,0.734,0.693,�k��,5.7,��
2019/09/19,20:50,0.738,1.051,0.721,1.284,0.944,0.420,0.735,0.695,�k�k��,4.3,��
2019/09/19,21:00,0.737,1.051,0.720,1.286,0.943,0.421,0.733,0.694,�k�k��,6.9,��
2019/09/19,21:10,0.737,1.048,0.719,1.285,0.941,0.420,0.732,0.692,�k�k��,7.6,��
2019/09/19,21:20,0.740,1.052,0.723,1.284,0.940,0.421,0.733,0.693,�k�k��,7.2,��
2019/09/19,21:30,0.737,1.050,0.721,1.285,0.943,0.420,0.732,0.693,�k�k��,5.5,��
2019/09/19,21:40,0.739,1.049,0.721,1.285,0.944,0.421,0.732,0.692,�k�k��,5.3,��
2019/09/19,21:50,0.739,1.051,0.721,1.285,0.943,0.421,0.732,0.692,�k�k��,4.8,��
2019/09/19,22:00,0.737,1.051,0.720,1.284,0.943,0.420,0.732,0.693,�k�k��,3.9,��
2019/09/19,22:10,0.739,1.049,0.720,1.285,0.942,0.421,0.732,0.693,�k��,3.5,��
2019/09/19,22:20,0.739,1.049,0.720,1.282,0.944,0.422,0.733,0.691,�k�k��,2.8,��
2019/09/19,22:30,0.738,1.051,0.720,1.285,0.942,0.422,0.734,0.693,�k�k��,2.9,��
2019/09/19,22:40,0.738,1.049,0.720,1.286,0.942,0.420,0.732,0.693,�k��,2.8,��
2019/09/19,22:50,0.738,1.050,0.720,1.284,0.942,0.421,0.732,0.693,�k��,3.4,��
2019/09/19,23:00,0.738,1.049,0.720,1.286,0.943,0.421,0.733,0.692,���k��,2.9,��
2019/09/19,23:10,0.738,1.047,0.721,1.284,0.943,0.421,0.734,0.694,�k��,2.6,��
2019/09/19,23:20,0.741,1.050,0.721,1.285,0.944,0.420,0.732,0.693,�k��,2.9,��
2019/09/19,23:30,0.738,1.050,0.722,1.283,0.943,0.419,0.734,0.693,�k��,4.0,��
2019/09/19,23:40,0.738,1.048,0.720,1.285,0.943,0.421,0.731,0.692,�k��,3.7,��
2019/09/19,23:50,0.737,1.049,0.722,1.288,0.942,0.420,0.732,0.693,�k��,3.4,��
